Voltar ao catálogo

STARLINK-36886

AtivoComunicaçõesVLEO
NORAD 68175·PAYLOAD·🇺🇸 United States

Lançado Mar 14, 2026 de Vandenberg Space Force Base

Loading…

Próximas Passagens (próximas 24 horas)

TLE

AtualizadoSource: CelesTrak SupGP

Época: Sep 15, 2026, 03:33 UTC

1 68175C 26050J   26258.14840278 -.00007059  00000+0 -20859-3 0  2584
2 68175  53.1574 102.5528 0001214  82.6186 110.1251 15.34389827    18

Acompanhe STARLINK-36886 em tempo real com AllMySat

Download on the App Store